FW3585 Weather Reports


Display with metric or nautical units.
time (UTC)temp
F
wind
direction
speed
MPH
gust
MPH
rain 1hr
in
rain 24hr
in
rain mn
in
humidity
%
barometer
mb
20260905154609 83 329 5.0 15.0 0.00 0.00 0.00 71 1012.3
20260905153048 83 343 5.0 10.0 0.00 0.00 0.00 72 1012.3
20260905151546 83 13 6.0 12.0 0.00 0.00 0.00 73 1012.6
20260905150046 83 27 4.0 9.0 0.00 0.00 0.00 74 1012.5
20260905144544 84 49 4.0 8.0 0.00 0.00 0.00 70 1012.3
20260905143044 85 74 1.0 5.0 0.00 0.00 0.00 67 1012.1
20260905141541 84 342 0.0 5.0 0.00 0.00 0.00 69 1011.9
20260905140045 83 333 1.0 5.0 0.00 0.00 0.00 70 1011.9
20260905134537 82 355 1.0 4.0 0.00 0.00 0.00 74 1011.6
20260905133041 81 350 0.0 0.0 0.00 0.00 0.00 76 1011.6
20260905131529 79 355 0.0 0.0 0.00 0.00 0.00 77 1011.3
20260905130026 78 355 0.0 0.0 0.00 0.00 0.00 78 1011.3
20260905124522 77 355 0.0 0.0 0.00 0.00 0.00 79 1011.4
20260905123018 76 355 0.0 0.0 0.00 0.00 0.00 81 1011.4
20260905121515 73 355 0.0 0.0 0.00 0.00 0.00 85 1011.4
20260905120015 72 355 0.0 0.0 0.00 0.00 0.00 85 1011.4
20260905114508 71 355 0.0 0.0 0.00 0.00 0.00 87 1011.3
20260905113004 70 9 0.0 0.0 0.00 0.00 0.00 88 1011.2
20260905111501 71 5 0.0 0.0 0.00 0.00 0.00 86 1011.3
20260905110058 71 9 0.0 0.0 0.00 0.00 0.00 85 1011.2
20260905104604 71 9 0.0 0.0 0.00 0.00 0.00 85 1011.2
20260905103056 72 348 0.0 0.0 0.00 0.00 0.00 85 1010.9
20260905101603 72 348 0.0 0.0 0.00 0.00 0.00 85 1010.9
20260905100053 73 348 0.0 0.0 0.00 0.00 0.00 84 1011.0
20260905094552 73 347 0.0 1.0 0.00 0.00 0.00 84 1011.1
20260905093055 73 347 0.0 2.0 0.00 0.00 0.00 84 1010.8
20260905091551 73 346 1.0 3.0 0.00 0.00 0.00 84 1010.9
20260905090050 74 346 0.0 0.0 0.00 0.00 0.00 84 1010.9
20260905084556 74 346 0.0 1.0 0.00 0.00 0.00 84 1010.7
20260905083048 74 346 0.0 2.0 0.00 0.00 0.00 84 1010.8
20260905081546 74 346 0.0 4.0 0.00 0.00 0.00 85 1011.2
20260905080053 73 342 1.0 4.0 0.00 0.00 0.00 86 1011.4
20260905074545 73 336 0.0 3.0 0.00 0.00 0.00 87 1011.4
20260905073046 73 340 3.0 6.0 0.00 0.00 0.00 88 1011.8
20260905071540 73 334 0.0 3.0 0.00 0.00 0.00 89 1011.6
20260905070037 73 335 0.0 4.0 0.00 0.00 0.00 90 1012.3
20260905064534 73 328 2.0 5.0 0.00 0.00 0.00 89 1012.7
20260905063033 74 333 2.0 4.0 0.00 0.00 0.00 88 1012.9
20260905061533 74 332 0.0 3.0 0.00 0.00 0.00 88 1013.1
20260905060030 74 17 1.0 6.0 0.00 0.00 0.00 88 1013.3
20260905054527 73 334 3.0 9.0 0.00 0.00 0.00 89 1013.7
20260905053027 74 20 1.0 3.0 0.00 0.00 0.00 88 1013.6
20260905051533 74 334 1.0 3.0 0.00 0.00 0.00 87 1013.8
20260905050022 74 157 0.0 0.0 0.00 0.00 0.00 87 1013.9
20260905044521 75 157 0.0 1.0 0.00 0.00 0.00 87 1014.1
20260905043019 75 157 0.0 2.0 0.00 0.00 0.00 86 1014.4
20260905041518 75 146 1.0 2.0 0.00 0.00 0.00 86 1014.5
20260905040014 75 145 0.0 0.0 0.00 0.00 0.00 86 1014.7
20260905034514 75 144 1.0 3.0 0.00 0.00 0.00 86 1014.6
20260905033021 75 145 2.0 7.0 0.00 0.00 0.00 86 1014.6
20260905031512 76 165 2.0 8.0 0.00 0.00 0.00 85 1014.5
20260905030013 76 153 4.0 8.0 0.00 0.00 0.00 85 1014.6
20260905024509 76 159 1.0 8.0 0.00 0.00 0.00 84 1014.4
20260905023008 77 162 1.0 5.0 0.00 0.00 0.00 83 1014.4
20260905021508 77 161 1.0 7.0 0.00 0.00 0.00 83 1014.0
20260905020008 77 140 3.0 7.0 0.00 0.00 0.00 83 1014.0
20260905014507 77 147 1.0 4.0 0.00 0.00 0.00 82 1013.6
20260905013013 78 132 0.0 0.0 0.00 0.00 0.00 82 1013.1
20260905011506 78 180 0.0 0.0 0.00 0.00 0.00 81 1012.8
20260905010005 78 10 0.0 1.0 0.00 0.00 0.00 80 1012.8
20260905004505 79 12 0.0 3.0 0.00 0.00 0.00 79 1012.7
20260905003005 79 19 1.0 6.0 0.00 0.00 0.00 78 1012.8
20260905001504 81 45 3.0 11.0 0.00 0.00 0.00 77 1012.9
20260905000009 83 78 3.0 7.0 0.00 0.00 0.00 72 1011.9
20260904234506 83 132 5.0 10.0 0.00 0.00 0.00 72 1011.7
20260904233002 85 67 3.0 15.0 0.00 0.00 0.00 68 1011.8
20260904231507 87 5 11.0 24.0 0.00 0.00 0.00 63 1013.1
20260904230001 90 336 6.0 13.0 0.00 0.00 0.00 57 1013.2
20260904224600 91 46 2.0 9.0 0.00 0.00 0.00 55 1012.1
20260904223100 92 49 1.0 7.0 0.00 0.00 0.00 54 1011.9
20260904221602 92 345 3.0 6.0 0.00 0.00 0.00 54 1012.0
20260904220104 92 27 2.0 4.0 0.00 0.00 0.00 54 1011.9
20260904214601 92 17 2.0 6.0 0.00 0.00 0.00 53 1011.8
20260904213058 93 355 3.0 8.0 0.00 0.00 0.00 51 1011.8
20260904211557 92 36 3.0 7.0 0.00 0.00 0.00 53 1011.8
20260904210057 91 343 2.0 8.0 0.00 0.00 0.00 55 1011.7
20260904204556 91 340 6.0 18.0 0.00 0.00 0.00 54 1011.8
20260904203056 97 38 8.0 19.0 0.00 0.00 0.00 45 1011.8
20260904201602 98 278 3.0 8.0 0.00 0.00 0.00 44 1011.4
20260904200059 98 255 2.0 10.0 0.00 0.00 0.00 42 1011.7
20260904194554 98 292 2.0 7.0 0.00 0.00 0.00 43 1011.9
20260904193050 97 260 2.0 6.0 0.00 0.00 0.00 45 1011.9
20260904191546 97 275 0.0 4.0 0.00 0.00 0.00 49 1012.2
20260904190143 96 280 0.0 3.0 0.00 0.00 0.00 48 1012.4
20260904184541 95 300 0.0 9.0 0.00 0.00 0.00 49 1012.7
20260904183053 94 355 3.0 10.0 0.00 0.00 0.00 50 1013.2
20260904181540 95 250 1.0 7.0 0.00 0.00 0.00 49 1013.4
20260904180033 96 318 0.0 7.0 0.00 0.00 0.00 50 1013.6
20260904174533 95 17 3.0 9.0 0.00 0.00 0.00 49 1013.8
20260904173029 95 295 2.0 9.0 0.00 0.00 0.00 50 1013.8
20260904171528 95 304 3.0 8.0 0.00 0.00 0.00 51 1013.9
20260904170026 95 328 1.0 12.0 0.00 0.00 0.00 51 1014.1
20260904164524 94 345 1.0 10.0 0.00 0.00 0.00 51 1014.3
20260904163023 93 248 2.0 11.0 0.00 0.00 0.00 54 1014.5
20260904161520 93 284 3.0 9.0 0.00 0.00 0.00 54 1014.5
20260904160022 93 350 6.0 11.0 0.00 0.00 0.00 55 1014.6